sat.trackr.live / text

‹ back to catalog

STARLINK-35604

NORAD 66802 · 2025-278M

PAYLOAD ACTIVE UNKNOWN

§ Identity

Operator
Country
US
Launch date
2025-12-01
Launch site
AFETR
Launch vehicle
Mass (kg)
RCS (m²)

Purposes: comms

External: N2YO · Heavens-Above · Gunter

§ Orbital elements

Epoch: 2026-05-25T02:29:38.302656Z

Period
94.27 min
Inclination
43.0040°
Eccentricity
0.0001360
Mean motion
15.27585980 rev/d
Perigee alt
482.1 km
Apogee alt
484.0 km
Semi-major
6,861.2 km
B*
5.4275e-4
RAAN
42.9922°
Arg perigee
263.6019°
Mean anomaly
96.4678°
Rev number
2,689

§ Raw data

STARLINK-356041 66802U 25278M   26145.10391554  .00014706  00000+0  54275-3 0  99952 66802  43.0040  42.9922 0001360 263.6019  96.4678 15.27585980 26895

JSON: /api/v1/satellites/66802 · /tle

For live sub-satellite position, see the globe view (requires WebGL).

§ Visibility from observer

Set your observer location to see the next 7 days of passes ≥ 10°. The values pass through the URL so the page stays shareable.

No JS? Fill the form by hand. The geolocation button needs JavaScript.